Date String (YYYY-MM-DD hh:mm:ss) UTC,Instrument flags,Ambient pressure (hPa),Sample flow (lpm),Bypass flow (lpm),Sample temperature (°C),Ambient temperature (°C),ASC tube jacket temperature (°C),LED temperature (°C),Box temperature (°C),Sample RH (%),Span deviation,Mass concentration (μg/m³),Mass concentration (μg/m³),Mass concentration (μg/m³)
DateTimeUTC,F1_M11,P_M11,Q1_M11,Q2_M11,T1_M11,T2_M11,T3_M11,T4_M11,T5_M11,U1_M11,ZSPAN_M11,X0_M11,X2_M11,X1_M11
2022-11-27 11:00:00,,0822.6,5.00,0.00,25.1,23.6,00.0,34.1,27.0,18.1,0000.0,0006.54,0003.84,0003.56
2022-11-27 11:01:00,,0822.6,5.00,0.00,25.1,23.6,00.0,34.1,27.0,18.1,0000.0,0006.61,0003.88,0003.58
2022-11-27 11:02:00,,0822.6,5.01,0.00,25.1,23.6,00.0,34.1,27.0,18.1,0000.0,0006.75,0003.91,0003.60
2022-11-27 11:03:00,,0822.5,5.00,0.00,25.1,23.6,00.0,34.1,27.0,18.1,0000.0,0006.59,0003.91,0003.62
2022-11-27 11:04:00,,0822.5,5.00,0.00,25.1,23.6,00.0,34.0,26.9,18.1,0000.0,0006.58,0003.92,0003.64
2022-11-27 11:05:00,,0822.4,5.00,0.00,25.0,23.6,00.0,34.0,26.9,18.1,0000.0,0006.80,0003.92,0003.65
2022-11-27 11:06:00,,0822.4,5.00,0.00,25.0,23.6,00.0,34.0,26.9,18.1,0000.0,0007.14,0003.93,0003.66
2022-11-27 11:07:00,,0822.4,5.00,0.00,25.0,23.6,00.0,34.0,26.9,18.2,0000.0,0007.08,0003.95,0003.67
2022-11-27 11:08:00,,0822.4,5.02,0.00,25.0,23.6,00.0,34.0,26.9,18.2,0000.0,0007.23,0003.95,0003.67
2022-11-27 11:09:00,,0822.4,5.00,0.00,25.0,23.6,00.0,34.0,26.9,18.1,0000.0,0007.56,0004.02,0003.71
2022-11-27 11:10:00,,0822.4,5.00,0.00,25.0,23.6,00.0,34.0,26.9,18.1,0000.0,0007.78,0004.14,0003.76
2022-11-27 11:11:00,,0822.4,4.99,0.00,25.0,23.6,00.0,34.0,26.9,18.1,0000.0,0007.68,0004.18,0003.80
2022-11-27 11:12:00,,0822.4,5.00,0.00,25.0,23.6,00.0,34.0,26.9,18.1,0000.0,0007.72,0004.22,0003.84
2022-11-27 11:13:00,,0822.4,5.00,0.00,25.0,23.6,00.0,34.0,26.9,18.1,0000.0,0007.80,0004.27,0003.88
2022-11-27 11:14:00,,0822.5,5.00,0.00,25.0,23.6,00.0,34.0,26.9,18.1,0000.0,0008.00,0004.32,0003.91
2022-11-27 11:15:00,,0822.5,5.00,0.00,25.0,23.6,00.0,34.0,26.9,18.1,0000.0,0008.07,0004.36,0003.94
2022-11-27 11:16:00,,0822.5,5.00,0.00,25.0,23.6,00.0,34.0,26.9,18.1,0000.0,0007.96,0004.40,0003.98
2022-11-27 11:17:00,,0822.5,5.01,0.00,25.0,23.6,00.0,34.0,26.9,18.1,0000.0,0007.80,0004.42,0004.01
2022-11-27 11:18:00,,0822.5,5.01,0.00,25.0,23.6,00.0,34.0,26.9,18.1,0000.0,0008.54,0004.46,0004.04
2022-11-27 11:19:00,,0822.5,4.99,0.00,25.0,23.6,00.0,34.0,26.9,18.1,0000.0,0008.59,0004.49,0004.08
2022-11-27 11:20:00,,0822.5,4.99,0.00,25.0,23.6,00.0,34.0,26.9,18.1,0000.0,0008.45,0004.49,0004.09
2022-11-27 11:21:00,,0822.5,4.99,0.00,25.0,23.6,00.0,34.0,26.9,18.1,0000.0,0008.33,0004.44,0004.08
2022-11-27 11:22:00,,0822.4,5.02,0.00,25.0,23.6,00.0,34.0,26.9,18.1,0000.0,0008.36,0004.43,0004.07
2022-11-27 11:23:00,,0822.5,4.99,0.00,25.0,23.6,00.0,34.0,26.9,18.1,0000.0,0008.41,0004.44,0004.08
2022-11-27 11:24:00,,0822.5,5.00,0.00,25.0,23.5,00.0,34.0,26.9,18.1,0000.0,0008.22,0004.41,0004.07
2022-11-27 11:25:00,,0822.6,5.00,0.00,25.0,23.5,00.0,34.0,26.9,18.1,0000.0,0008.12,0004.41,0004.09
2022-11-27 11:26:00,,0822.6,5.00,0.00,25.0,23.5,00.0,34.0,26.9,18.1,0000.0,0008.22,0004.45,0004.09
2022-11-27 11:27:00,,0822.6,4.99,0.00,25.0,23.5,00.0,33.9,26.9,18.1,0000.0,0008.22,0004.46,0004.10
2022-11-27 11:28:00,,0822.6,5.02,0.00,25.0,23.5,00.0,33.9,26.9,18.1,0000.0,0008.28,0004.49,0004.10
2022-11-27 11:29:00,,0822.5,4.99,0.00,25.0,23.5,00.0,33.9,26.9,18.1,0000.0,0007.62,0004.47,0004.11
2022-11-27 11:30:00,,0822.5,4.99,0.00,25.0,23.5,00.0,33.9,26.9,18.1,0000.0,0007.27,0004.46,0004.10
2022-11-27 11:31:00,,0822.6,5.02,0.00,25.0,23.5,00.0,33.9,26.9,18.1,0000.0,0007.14,0004.45,0004.10
2022-11-27 11:32:00,,0822.5,5.00,0.00,25.0,23.5,00.0,33.9,26.9,18.1,0000.0,0007.16,0004.46,0004.11
2022-11-27 11:33:00,,0822.4,5.00,0.00,25.0,23.5,00.0,33.9,26.9,18.1,0000.0,0007.06,0004.46,0004.12
2022-11-27 11:34:00,,0822.5,5.00,0.00,25.0,23.5,00.0,33.9,26.9,18.1,0000.0,0006.77,0004.43,0004.13
2022-11-27 11:35:00,,0822.4,5.00,0.00,25.0,23.5,00.0,33.9,26.9,18.1,0000.0,0007.37,0004.44,0004.14
2022-11-27 11:36:00,,0822.4,4.99,0.00,25.0,23.5,00.0,33.9,26.9,18.2,0000.0,0007.70,0004.46,0004.14
2022-11-27 11:37:00,,0822.4,4.99,0.00,24.9,23.5,00.0,33.9,26.9,18.2,0000.0,0007.63,0004.41,0004.11
2022-11-27 11:38:00,,0822.4,5.02,0.00,24.9,23.5,00.0,33.9,26.9,18.3,0000.0,0007.56,0004.34,0004.07
2022-11-27 11:39:00,,0822.4,5.00,0.00,24.9,23.5,00.0,33.9,26.8,18.2,0000.0,0007.51,0004.30,0004.03
2022-11-27 11:40:00,,0822.4,5.00,0.00,24.9,23.5,00.0,33.9,26.8,18.3,0000.0,0007.54,0004.30,0004.03
2022-11-27 11:41:00,,0822.4,5.00,0.00,24.9,23.5,00.0,33.9,26.8,18.3,0000.0,0007.52,0004.28,0004.01
2022-11-27 11:42:00,,0822.4,5.00,0.00,24.9,23.5,00.0,33.9,26.8,18.3,0000.0,0007.50,0004.23,0003.97
2022-11-27 11:43:00,,0822.4,4.99,0.00,24.9,23.5,00.0,33.9,26.8,18.3,0000.0,0007.38,0004.17,0003.94
2022-11-27 11:44:00,,0822.4,5.00,0.00,24.9,23.5,00.0,33.9,26.8,18.3,0000.0,0007.38,0004.13,0003.91
2022-11-27 11:45:00,,0822.4,5.01,0.00,24.9,23.5,00.0,33.9,26.8,18.3,0000.0,0007.40,0004.13,0003.88
2022-11-27 11:46:00,,0822.4,5.00,0.00,24.9,23.5,00.0,33.9,26.8,18.3,0000.0,0006.70,0004.11,0003.87
2022-11-27 11:47:00,,0822.4,4.99,0.00,24.9,23.5,00.0,33.9,26.8,18.3,0000.0,0006.29,0004.11,0003.86
2022-11-27 11:48:00,,0822.4,5.00,0.00,24.9,23.5,00.0,33.9,26.8,18.3,0000.0,0006.26,0004.14,0003.89
2022-11-27 11:49:00,,0822.4,5.00,0.00,24.9,23.5,00.0,33.9,26.8,18.3,0000.0,0006.41,0004.19,0003.92
2022-11-27 11:50:00,,0822.4,5.02,0.00,24.9,23.5,00.0,33.9,26.8,18.3,0000.0,0006.41,0004.20,0003.93
2022-11-27 11:51:00,,0822.5,5.00,0.00,24.9,23.5,00.0,33.9,26.8,18.3,0000.0,0006.52,0004.18,0003.93
2022-11-27 11:52:00,,0822.5,5.00,0.00,24.9,23.5,00.0,33.9,26.8,18.3,0000.0,0007.46,0004.20,0003.95
2022-11-27 11:53:00,,0822.5,5.00,0.00,24.9,23.5,00.0,33.9,26.8,18.3,0000.0,0007.79,0004.22,0003.98
2022-11-27 11:54:00,,0822.5,4.99,0.00,24.9,23.5,00.0,33.9,26.8,18.3,0000.0,0008.15,0004.27,0004.01
2022-11-27 11:55:00,,0822.6,4.99,0.00,24.9,23.4,00.0,33.9,26.7,18.3,0000.0,0008.20,0004.30,0004.03
2022-11-27 11:56:00,,0822.6,5.00,0.00,24.9,23.4,00.0,33.8,26.8,18.3,0000.0,0008.57,0004.29,0004.03
2022-11-27 11:57:00,,0822.6,5.00,0.00,24.9,23.4,00.0,33.8,26.8,18.3,0000.0,0008.79,0004.28,0004.03
2022-11-27 11:58:00,,0822.6,5.02,0.00,24.9,23.4,00.0,33.8,26.7,18.3,0000.0,0008.74,0004.26,0004.03
2022-11-27 11:59:00,,0822.6,5.00,0.00,24.9,23.4,00.0,33.8,26.7,18.3,0000.0,0009.22,0004.24,0004.02
